Weather History for Opa Locka, FL

Change the Weather History Date:

Saturday, March 2, 2013

  Actual Average Record
Temperature  
Mean Temperature 62 °F -  
Max Temperature 69 °F 77 °F 90 °F (2003)
Min Temperature 54 °F 59 °F 33 °F (1980)
Degree Days  
Heating Degree Days 3    
Growing Degree Days 12 (Base 50)    
Moisture  
Dew Point 40 °F    
Average Humidity 50    
Maximum Humidity 62    
Minimum Humidity 36    
Precipitation  
Precipitation 0.00 in - - ()
Sea Level Pressure  
Sea Level Pressure 30.02 in    
Wind  
Wind Speed 13 mph (NW)    
Max Wind Speed 22 mph    
Max Gust Speed 28 mph    
Visibility 10 miles    
Events      
Averages and records for this station are not official NWS values.
T = Trace of Precipitation, MM = Missing Value Source: NWS Daily Summary

Daily Weather History Graph

Daily Weather History Graph

Search for Another Location

Airport:

Trip Planner

Search our weather history database for the weather conditions in past years. The results will help you decide how hot, cold, wet, or windy it might be!

Date:

Astronomy

Mar. 02, 2013 Rise Set
Actual Time 6:43 AM EST 6:23 PM EST
Civil Twilight 6:20 AM EST 6:46 PM EST
Nautical Twilight 5:53 AM EST 7:13 PM EST
Astronomical Twilight 5:26 AM EST 7:40 PM EST
Moon 11:24 PM EST (3/2) 9:44 AM EST (3/2)
Length of Visible Light 12h 26m
Length of Day
11h 40m
Waning Gibbous, 74% of the Moon is Illuminated
Mar 2
Waning Gibbous
Mar 4
Last Quarter
Mar 11
New
Mar 19
First Quarter
Mar 27
Full

Hourly Weather History & Observations

Time (EST) Temp. Dew Point Humidity Pressure Visibility Wind Dir Wind Speed Gust Speed Precip Events Conditions
12:53 AM 60.1 °F 46.9 °F 62% 29.99 in 10.0 mi NW 10.4 mph - N/A   Overcast
1:53 AM 59.0 °F 39.9 °F 49% 29.99 in 10.0 mi NNW 17.3 mph - N/A   Overcast
2:53 AM 57.9 °F 39.0 °F 49% 29.99 in 10.0 mi NW 13.8 mph 20.7 mph N/A   Overcast
3:53 AM 57.0 °F 39.0 °F 51% 29.99 in 10.0 mi NW 17.3 mph 24.2 mph N/A   Overcast
4:53 AM 57.0 °F 39.9 °F 53% 29.99 in 10.0 mi NW 17.3 mph 23.0 mph N/A   Overcast
5:53 AM 55.4 °F 39.2 °F 54% 30.01 in 10.0 mi NNW 13.8 mph - N/A   Overcast
6:53 AM 55.9 °F 39.9 °F 55% 30.04 in 10.0 mi NNW 13.8 mph - N/A   Overcast
7:53 AM 57.0 °F 42.1 °F 57% 30.04 in 10.0 mi NNW 13.8 mph 20.7 mph N/A   Overcast
8:53 AM 57.0 °F 43.0 °F 59% 30.05 in 10.0 mi North 12.7 mph - N/A   Overcast
9:53 AM 57.9 °F 42.1 °F 56% 30.05 in 10.0 mi North 8.1 mph - N/A   Mostly Cloudy
10:53 AM 57.9 °F 39.0 °F 49% 30.04 in 10.0 mi North 5.8 mph - N/A   Overcast
11:53 AM 62.1 °F 39.0 °F 43% 30.03 in 10.0 mi NNW 10.4 mph - N/A   Overcast
12:53 PM 66.0 °F 41.0 °F 40% 30.00 in 10.0 mi NW 12.7 mph 18.4 mph N/A   Mostly Cloudy
1:53 PM 69.1 °F 42.1 °F 38% 29.98 in 10.0 mi NW 20.7 mph 26.5 mph N/A   Mostly Cloudy
2:53 PM 69.1 °F 41.0 °F 36% 29.97 in 10.0 mi NW 21.9 mph 27.6 mph N/A   Partly Cloudy
3:53 PM 68.0 °F 39.9 °F 36% 29.97 in 10.0 mi NW 20.7 mph 25.3 mph N/A   Clear
4:53 PM 63.0 °F 37.9 °F 40% 29.98 in 10.0 mi WNW 18.4 mph 25.3 mph N/A   Mostly Cloudy
5:53 PM 61.0 °F 39.0 °F 44% 30.00 in 10.0 mi WNW 17.3 mph 21.9 mph N/A   Clear
6:53 PM 59.0 °F 41.0 °F 51% 30.02 in 10.0 mi NW 6.9 mph - N/A   Clear
7:53 PM 57.2 °F 39.2 °F 51% 30.04 in 10.0 mi NNW 9.2 mph - N/A   Clear
8:53 PM 57.0 °F 39.9 °F 53% 30.06 in 10.0 mi NNW 4.6 mph - N/A   Clear
9:53 PM 57.0 °F 41.0 °F 55% 30.06 in 10.0 mi NW 5.8 mph - N/A   Clear
10:53 PM 55.0 °F 39.9 °F 57% 30.06 in 10.0 mi NW 3.5 mph - N/A   Clear
11:53 PM 54.0 °F 39.9 °F 59% 30.03 in 10.0 mi NNW 3.5 mph - N/A   Clear